FW5820 Weather Reports


Display with metric or nautical units.
time (UTC)temp
F
wind
direction
speed
MPH
gust
MPH
rain 1hr
in
rain 24hr
in
rain mn
in
humidity
%
barometer
mb
20210615093516 65 336 1.0 3.0 0.00 0.40 0.00 88 1007.6
20210615092516 65 329 1.0 2.0 0.00 0.40 0.00 89 1007.6
20210615091516 65 332 2.0 5.0 0.00 0.40 0.00 89 1007.5
20210615090516 65 287 2.0 5.0 0.00 0.40 0.00 88 1007.6
20210615085517 65 139 1.0 3.0 0.00 0.40 0.00 88 1007.7
20210615084516 65 139 0.0 1.0 0.00 0.40 0.00 88 1007.4
20210615083516 65 0.0 1.0 0.00 0.40 0.00 89 1007.5
20210615082516 65 140 1.0 2.0 0.00 0.40 0.00 89 1007.6
20210615081516 65 134 1.0 2.0 0.00 0.40 0.00 88 1007.7
20210615080516 65 143 0.0 1.0 0.00 0.40 0.00 88 1007.5
20210615075516 65 129 0.0 2.0 0.00 0.40 0.00 88 1007.6
20210615074517 65 149 0.0 1.0 0.00 0.40 0.00 88 1007.7
20210615073516 65 142 1.0 4.0 0.00 0.40 0.00 88 1007.7
20210615072516 65 134 1.0 8.0 0.00 0.40 0.00 88 1007.7
20210615071516 65 129 3.0 7.0 0.00 0.40 0.00 88 1007.5
20210615070516 65 139 0.0 2.0 0.00 0.40 0.00 87 1007.6
20210615065516 65 262 1.0 4.0 0.00 0.40 0.00 88 1007.9
20210615064516 64 0.0 2.0 0.00 0.40 0.00 88 1007.7
20210615063516 65 88 0.0 2.0 0.00 0.40 0.00 87 1007.6
20210615062517 65 41 1.0 6.0 0.00 0.40 0.00 87 1007.6
20210615061516 65 97 2.0 3.0 0.00 0.40 0.00 86 1007.8
20210615060516 65 119 1.0 5.0 0.00 0.40 0.00 86 1008.1
20210615055516 65 106 2.0 8.0 0.00 0.40 0.00 86 1008.0
20210615054516 65 124 3.0 7.0 0.00 0.40 0.00 85 1008.2
20210615053516 66 136 3.0 7.0 0.00 0.40 0.00 84 1008.2
20210615052516 66 142 2.0 5.0 0.00 0.40 0.00 83 1008.2
20210615051516 65 146 1.0 5.0 0.00 0.40 0.00 83 1008.3
20210615050516 65 165 1.0 5.0 0.00 0.40 0.00 84 1008.4
20210615045516 65 135 1.0 3.0 0.00 0.40 0.00 84 1008.5
20210615044516 65 126 2.0 7.0 0.00 0.40 0.00 83 1008.4
20210615043516 65 134 4.0 8.0 0.00 0.40 0.00 82 1008.6
20210615042516 66 145 1.0 4.0 0.00 0.40 0.00 81 1008.4
20210615041516 66 157 1.0 2.0 0.00 0.40 0.00 82 1008.3
20210615040516 65 131 3.0 6.0 0.00 0.40 0.00 83 1008.4
20210615035516 65 165 1.0 6.0 0.00 0.40 0.40 84 1008.7
20210615034518 65 143 1.0 4.0 0.00 0.40 0.40 84 1008.6
20210615033518 65 140 1.0 5.0 0.00 0.40 0.40 83 1008.6
20210615032518 65 134 2.0 6.0 0.00 0.40 0.40 84 1008.9
20210615031518 65 157 1.0 5.0 0.00 0.40 0.40 84 1009.0
20210615030518 65 121 3.0 6.0 0.00 0.40 0.40 84 1008.9
20210615025519 65 162 1.0 4.0 0.00 0.40 0.40 85 1008.9
20210615024518 65 126 2.0 6.0 0.00 0.40 0.40 85 1009.1
20210615023518 65 128 3.0 6.0 0.00 0.40 0.40 85 1009.4
20210615022518 65 223 0.0 2.0 0.00 0.40 0.40 86 1009.3
20210615021518 65 146 1.0 5.0 0.00 0.40 0.40 85 1009.4
20210615020518 65 135 3.0 7.0 0.00 0.40 0.40 85 1009.3
20210615015518 65 126 2.0 4.0 0.00 0.40 0.40 84 1009.0
20210615014518 65 132 2.0 5.0 0.00 0.40 0.40 84 1009.2
20210615013518 65 119 1.0 7.0 0.00 0.40 0.40 84 1008.9
20210615012518 65 124 4.0 10.0 0.00 0.40 0.40 84 1008.8
20210615011518 65 113 2.0 6.0 0.00 0.40 0.40 86 1008.9
20210615010518 66 100 2.0 6.0 0.00 0.40 0.40 85 1008.8
20210615005518 66 115 2.0 6.0 0.00 0.40 0.40 84 1008.9
20210615004518 66 123 1.0 6.0 0.00 0.40 0.40 84 1009.0
20210615003518 66 38 1.0 4.0 0.00 0.40 0.40 85 1009.4
20210615002518 66 50 1.0 4.0 0.00 0.40 0.40 84 1009.2
20210615001518 66 77 1.0 4.0 0.00 0.40 0.40 84 1009.3
20210615000519 66 51 1.0 3.0 0.00 0.40 0.40 84 1009.5
20210614235518 67 123 3.0 7.0 0.00 0.40 0.40 84 1009.3
20210614234518 67 125 3.0 7.0 0.00 0.40 0.40 83 1009.1
20210614233519 67 124 4.0 9.0 0.00 0.40 0.40 82 1009.0
20210614232518 68 128 2.0 5.0 0.00 0.40 0.40 81 1009.2
20210614231518 68 124 3.0 7.0 0.00 0.40 0.40 80 1009.2
20210614230518 69 115 2.0 5.0 0.00 0.40 0.40 80 1009.1
20210614225518 69 125 3.0 8.0 0.00 0.40 0.40 80 1008.9
20210614224518 69 126 3.0 9.0 0.00 0.40 0.40 81 1009.0
20210614223518 69 123 5.0 7.0 0.00 0.40 0.40 80 1009.4
20210614222518 69 147 2.0 5.0 0.00 0.40 0.40 80 1009.4
20210614221518 69 115 2.0 10.0 0.00 0.40 0.40 81 1009.3
20210614220518 69 120 5.0 12.0 0.00 0.40 0.40 81 1009.4
20210614215519 69 125 4.0 9.0 0.00 0.40 0.40 80 1009.5
20210614214518 69 126 4.0 9.0 0.00 0.40 0.40 81 1009.6
20210614213518 69 128 4.0 10.0 0.00 0.40 0.40 80 1009.7
20210614212518 69 143 2.0 8.0 0.00 0.40 0.40 80 1009.7
20210614211518 69 120 6.0 11.0 0.00 0.40 0.40 80 1009.4
20210614210518 69 118 5.0 12.0 0.00 0.40 0.40 80 1009.6
20210614205518 69 105 5.0 13.0 0.00 0.40 0.40 80 1009.6
20210614204518 69 119 5.0 11.0 0.00 0.40 0.40 80 1009.5
20210614203518 68 96 4.0 11.0 0.00 0.40 0.40 81 1009.9
20210614202518 69 122 6.0 14.0 0.00 0.40 0.40 81 1010.1
20210614201518 69 117 6.0 12.0 0.00 0.40 0.40 80 1010.2
20210614200518 69 119 7.0 12.0 0.01 0.40 0.40 80 1010.4
20210614195518 69 115 4.0 9.0 0.01 0.40 0.40 79 1010.5
20210614194518 70 115 5.0 12.0 0.01 0.40 0.40 79 1010.5
20210614193518 69 132 3.0 7.0 0.01 0.40 0.40 81 1010.5
20210614192518 68 82 4.0 9.0 0.01 0.40 0.40 82 1010.6
20210614191518 68 80 3.0 7.0 0.01 0.40 0.40 82 1010.6
20210614190518 68 82 2.0 8.0 0.00 0.39 0.39 81 1010.6
20210614185518 68 83 2.0 6.0 0.00 0.39 0.39 82 1010.8
20210614184518 67 95 2.0 8.0 0.05 0.39 0.39 84 1010.8
20210614183517 66 66 3.0 7.0 0.05 0.39 0.39 86 1010.9
20210614182518 65 40 4.0 11.0 0.05 0.39 0.39 86 1010.9
20210614181518 65 84 5.0 11.0 0.06 0.39 0.39 86 1011.1
20210614180518 65 106 3.0 11.0 0.06 0.39 0.39 87 1011.3
20210614175518 65 92 4.0 10.0 0.06 0.39 0.39 86 1011.3
20210614174518 65 117 4.0 9.0 0.01 0.34 0.34 85 1011.5
20210614173518 65 105 4.0 10.0 0.01 0.34 0.34 85 1011.6
20210614172517 65 103 3.0 12.0 0.01 0.34 0.34 84 1011.6
20210614171518 66 105 4.0 9.0 0.00 0.33 0.33 83 1011.9
20210614170517 66 82 4.0 9.0 0.00 0.33 0.33 82 1011.9
20210614165517 67 109 3.0 10.0 0.00 0.33 0.33 82 1012.1
20210614164518 66 122 5.0 14.0 0.00 0.33 0.33 84 1012.2
20210614163517 65 117 7.0 14.0 0.00 0.33 0.33 86 1012.2
20210614162517 65 127 5.0 12.0 0.00 0.33 0.33 87 1012.2
20210614161518 63 80 2.0 8.0 0.00 0.33 0.33 88 1012.4
20210614160517 62 52 2.0 9.0 0.00 0.33 0.33 88 1012.3
20210614155518 62 62 4.0 9.0 0.01 0.33 0.33 87 1012.3
20210614154517 63 69 4.0 11.0 0.03 0.33 0.33 86 1012.4
20210614153517 62 41 4.0 10.0 0.09 0.33 0.33 87 1012.4
20210614152517 62 90 2.0 5.0 0.09 0.33 0.33 86 1012.6
20210614151517 62 61 2.0 6.0 0.09 0.33 0.33 86 1012.5
20210614150518 62 55 1.0 3.0 0.09 0.33 0.33 86 1012.5
20210614145517 62 147 2.0 5.0 0.09 0.32 0.32 86 1012.7
20210614144517 62 122 3.0 9.0 0.11 0.30 0.30 84 1012.8
20210614143517 63 122 7.0 13.0 0.05 0.24 0.24 85 1012.7
20210614142518 63 111 5.0 11.0 0.05 0.24 0.24 86 1012.6
20210614141517 63 106 2.0 9.0 0.06 0.24 0.24 88 1012.5
20210614140517 63 118 4.0 10.0 0.06 0.24 0.24 88 1012.4
20210614135517 63 130 3.0 7.0 0.06 0.23 0.23 88 1012.5
20210614134517 63 133 3.0 10.0 0.02 0.19 0.19 88 1012.6
20210614133517 62 119 3.0 6.0 0.02 0.19 0.19 88 1012.6
20210614132517 62 66 1.0 4.0 0.03 0.19 0.19 89 1012.6
20210614131517 62 143 3.0 7.0 0.09 0.18 0.18 90 1012.7
20210614130517 62 124 2.0 5.0 0.14 0.18 0.18 90 1012.7
20210614125517 61 141 4.0 8.0 0.17 0.17 0.17 89 1012.9
20210614124517 62 143 7.0 13.0 0.17 0.17 0.17 89 1013.1
20210614123517 63 143 4.0 11.0 0.17 0.17 0.17 91 1013.0
20210614122517 63 121 2.0 9.0 0.16 0.16 0.16 90 1012.7
20210614121517 63 137 4.0 9.0 0.09 0.09 0.09 87 1013.2
20210614120517 63 137 5.0 10.0 0.04 0.04 0.04 89 1012.9
20210614115517 64 134 6.0 11.0 0.00 0.00 0.00 87 1012.7
20210614114517 64 137 5.0 9.0 0.00 0.00 0.00 87 1012.8
20210614113517 64 144 5.0 13.0 0.00 0.00 0.00 87 1012.6
20210614112517 64 134 6.0 14.0 0.00 0.00 0.00 87 1012.4
20210614111517 64 129 7.0 17.0 0.00 0.00 0.00 87 1012.3
20210614110517 64 142 8.0 18.0 0.00 0.00 0.00 88 1012.2
20210614105517 64 129 10.0 16.0 0.00 0.00 0.00 88 1011.9
20210614104517 64 128 8.0 18.0 0.00 0.00 0.00 88 1011.9
20210614103517 64 124 9.0 19.0 0.00 0.00 0.00 87 1011.8
20210614102517 64 138 6.0 16.0 0.00 0.00 0.00 86 1012.1
20210614101517 64 130 7.0 16.0 0.00 0.00 0.00 86 1011.9
20210614100517 64 124 6.0 17.0 0.00 0.00 0.00 87 1011.9
20210614095517 64 121 6.0 15.0 0.00 0.00 0.00 87 1012.1
20210614094517 64 128 6.0 15.0 0.00 0.00 0.00 87 1012.2